Location: Casalecchio di Reno
(44.4760°N, 11.2757°E)
Time: 20:53:39
(UTC+02:00)

QB50P2 - Pass Details

Date: 26 June 2024
Orbit: 561 x 578 km, 98.0° (Epoch: 18 July)

Event Time Altitude Azimuth Distance (km) Brightness Sun altitude
Rises 04:04:29 0° 13° (NNE) 2,766 ? -12.2°
Reaches altitude 10° 04:06:38 10° 13° (NNE) 1,863 ? -12.0°
Maximum altitude 04:10:40 90° 123° (ESE) 568 ? -11.5°
Enters shadow 04:14:12 13° 194° (SSW) 1,651 ? -11.1°
